Вернуться в каталог

TITAN 3C TRANSTAGE DEB

АктивенHEO
NORAD 26530·DEBRIS·🇺🇸 United States

Запущен Dec 21, 1965 с Cape Canaveral Space Force Station

Loading…

Ближайшие Пролёты (ближайшие 24 часа)

TLE

СвежийSource: Space-Track

Эпоха: Sep 11, 2026, 15:59 UTC

1 26530U 65108AR  26254.66641447 -.00000025  00000-0  94752-4 0  9992
2 26530  27.2334  60.3559 6742805  33.0623 355.0781  2.83233997279032

Отслеживайте TITAN 3C TRANSTAGE DEB в реальном времени с AllMySat

Download on the App Store